Regional Weather Roundup
Issued by NWS

Home | Current Version | Previous Version | Graphics & Text | Print | Product List | Glossary On
Versions: 1 2 3 4 5 6 7 8 9 10 11 12 13 14 15 16 17 18 19 20 21 22 23 24 25 26 27 28 29 30 31 32 33 34 35 36 37 38 39 40 41 42 43 44 45 46 47 48 49 50
071
ASUS43 KMKX 221111
RWRWI

WISCONSIN REGIONAL WEATHER ROUNDUP
NATIONAL WEATHER SERVICE MILWAUKEE/SULLIVAN WI
600 AM CDT SAT JUL 22 2017

NOTE: "FAIR" INDICATES FEW OR NO CLOUDS BELOW 12,000 FEET WITH NO
SIGNIFICANT WEATHER AND/OR OBSTRUCTIONS TO VISIBILITY.

WIZ001-002-006>008-014>016-023>028-221200-
NORTHWEST WISCONSIN

CITY           SKY/WX    TMP DP  RH WIND       PRES   REMARKS
SUPERIOR ARPT  NOT AVBL
ASHLAND        FOG       62  61  96 SW7       29.82R VSB 1/4
HAYWARD        CLOUDY    64  63  96 CALM      29.85R
SIREN          PTCLDY    60  59  97 CALM      29.84R FOG
CUMBERLAND     CLOUDY    61  61 100 CALM      29.84R
RICE LAKE      CLOUDY    63  62  97 CALM      29.84R FOG
CHETEK         CLOUDY    63  63 100 CALM      29.83R
LADYSMITH      PTCLDY    64  64  97 CALM      29.85R
EAU CLAIRE     CLOUDY    68  67  96 S3        29.79F
MENOMONIE      CLOUDY    67  66  97 CALM      29.81S
NEW RICHMOND   MOCLDY    65  64  97 CALM      29.83R
OSCEOLA        MOCLDY    65  65 100 CALM      29.85R
$$

WIZ003>005-009-010-017-018-221200-
NORTH CENTRAL WISCONSIN

CITY           SKY/WX    TMP DP  RH WIND       PRES   REMARKS
MANITOWISH WTR CLOUDY    66  66 100 CALM      29.84R
ARBOR VITAE    CLOUDY    67  65  94 CALM      29.84R FOG
WOODRUFF       CLOUDY    67  65  94 CALM      29.84R FOG
RHINELANDER    CLOUDY    64  62  93 SW3       29.86R
EAGLE RIVER    CLOUDY    65  58  78 CALM      29.84S
LAND O LAKES   CLOUDY    65  63  94 CALM      29.86R
PHILLIPS       CLOUDY    65  65 100 CALM      29.84R
TOMAHAWK         N/A     64  61  93 CALM      29.85R FOG
MEDFORD        CLOUDY    66  66  99 CALM      29.83S FOG
MERRILL        CLOUDY    65  65 100 CALM      29.84R FOG
$$

WIZ029-030-035-036-043>047-221200-
CENTRAL WISCONSIN

CITY           SKY/WX    TMP DP  RH WIND       PRES   REMARKS
WAUSAU         CLOUDY    66  65  96 S8        29.81R FOG
MOSINEE        FOG       64  64 100 S6        29.84R VSB 1/2
MARSHFIELD     FOG       67  66  97 CALM      29.82R VSB 1/4
STEVENS POINT  CLOUDY    64  64 100 CALM      29.83S FOG
WAUPACA        CLOUDY    68  65  88 CALM      29.81R
WAUTOMA        CLOUDY    65  64  97 CALM      29.82R
WISC RAPIDS    FOG       66  66 100 CALM      29.83R VSB 1
CAMP DOUGLAS   FOG       67  67 100 CALM      29.80R VSB 1/4
$$

WIZ011>013-019>022-031-037>040-048>050-221200-
NORTHEAST WISCONSIN

CITY           SKY/WX    TMP DP  RH WIND       PRES   REMARKS
ANTIGO         CLOUDY    64  63  97 S3        29.85R
SHAWANO        CLOUDY    66  58  75 CALM      29.81R
OCONTO         MOCLDY    65  62  88 SE3       29.80S
STURGEON BAY     N/A     68  62  81 E6        29.81F
GREEN BAY      MOCLDY    67  64  90 CALM      29.79F
MANITOWOC      CLOUDY    68  63  84 E3        29.81S
APPLETON       CLOUDY    66  55  68 CALM      29.79R
CLINTONVILLE   CLOUDY    64  55  72 CALM      29.81R
OSHKOSH        CLOUDY    68  62  81 CALM      29.80R
$$

WIZ032>034-041-042-053>061-221200-
SOUTHWEST WISCONSIN

CITY           SKY/WX    TMP DP  RH WIND       PRES   REMARKS
LA CROSSE      CLOUDY    73  70  90 S3        29.77S
SPARTA         CLOUDY    66  66  99 CALM      29.79S
VIROQUA        CLOUDY    68  68 100 S6        29.81R VSB 1/2
BOSCOBEL       CLOUDY    71  69  93 CALM      29.78S FOG
PRAIRIE DU CHI CLOUDY    70  68  95 CALM      29.77S
PLATTEVILLE    CLOUDY    69  69 100 W15G23    29.79F
$$

WIZ056-057-062-063-064-067-068-221200-
SOUTH CENTRAL WISCONSIN

CITY           SKY/WX    TMP DP  RH WIND       PRES   REMARKS
REEDSBURG      FOG       66  66 100 CALM      29.79S VSB 3/4
BARABOO/DELLS  FOG       66  65  95 CALM      29.80S VSB 1
LONE ROCK      FOG       68  67  96 E3        29.78S VSB 1
MINERAL POINT  CLOUDY    70  70 100 SW9       29.81S
MADISON        DRZL/FOG  68  67  96 S6        29.79R VSB 1
MIDDLETON      CLOUDY    69  69 100 CALM      29.81S VSB 1
WATERTOWN      CLOUDY    65  65 100 S3        29.79F FOG
MONROE         LGT RAIN  68  66  94 SW3       29.79R
JANESVILLE     CLOUDY    70  70 100 SW9       29.81R
$$

WIZ051-052-058>065-066-070>072-221200-
SOUTHEAST WISCONSIN

CITY           SKY/WX    TMP DP  RH WIND       PRES   REMARKS
MILWAUKEE      CLOUDY    70  68  93 W5        29.78R
WAUKESHA       CLOUDY    64  63  94 CALM      29.81R
MILWAUKEE/TIMM CLOUDY    64  61  88 W3        29.80R
RACINE         CLOUDY    71  71 100 W6        29.80R
KENOSHA        CLOUDY    71  69  93 W6        29.79R
FOND DU LAC    CLOUDY    67  61  81 CALM      29.80R
SHEBOYGAN      CLOUDY    67  66  97 NE5       29.79S
WEST BEND      CLOUDY    63  63 100 CALM      29.81R
JUNEAU         CLOUDY    65  63  94 CALM      29.82R
$$

LSZ147-162-221200-
LAKE SUPERIOR

STATION/POSITION TIME  TEMP    WIND        PRES    WAVE
                       AIR SEA DIR/SP/G            HT/PER
                 (UTC) (F)     (DEG/KT/KT) (MB)    (FT/S)
W MID LAKE BUOY  1050   50 47   10/ 10/ 12 1008.8F   1/ 4
DEVILS ISLAND    1100   56      10/  5/  5 1009.6R
SAXON HARBOR     1030   63     190/  2/  4 1008.5F
$$

LMZ867-665-643>646-221200-
LAKE MICHIGAN

STATION/POSITION TIME  TEMP    WIND        PRES    WAVE
                       AIR SEA DIR/SP/G            HT/PER
                 (UTC) (F)     (DEG/KT/KT) (MB)    (FT/S)
CHAMBERS ISLAND  1040   69     110/  3/  4 1008.8F
S GREEN BAY BUOY 1100   70 73  120/  6/  8 1009.3
N MID LAKE BUOY  1050   67 66  180/  4/  6 1010.7F   1
NORTHPORT PIER   1040   69     160/  3/  4 1009.8R
KEWAUNEE LAKESHO 1048   67     110/  5/  6 1008.6F
SHEBOYGAN LAKESH 1100   67      20/  5/  6 1008.3R
PORT WASHINGTON  1040   68     340/  3/  4 1009.5R
ATWATER BUOY     1009   68 68  240/  4/  6 1008.2F
MILWAUKEE LAKESH 1050   69     280/  7/  8   N/A
S MID LAKE BUOY  1050   71 70  220/  8/ 10 1008.0S   2/ 4
KENOSHA   LAKESH 1100   72     280/  6/ 10 1008.8
$$

TC  - TEMPERATURE IN CELSIUS
VSB - VISIBILITY IN STATUTE MILES
WCI - WIND CHILL INDEX
HX  - HEAT INDEX





USA.gov is the U.S. government's official web portal to all federal, state and local government web resources and services.